Voltar ao catálogo

FENGYUN 1C DEB

LostSSO
NORAD 36246·DEBRIS·🇨🇳 China

Lançado May 10, 1999 de Taiyuan Satellite Launch Center

Loading…

Próximas Passagens (próximas 24 horas)

TLE

ObsoletoSource: Space-Track

Época: Oct 7, 2011, 10:44 UTC

1 36246U 99025DVX 11280.44747633  .00000673  00000-0  39647-3 0  9994
2 36246  99.0174 275.0128 0133011 273.8003  76.1936 14.07157088274512

Acompanhe FENGYUN 1C DEB em tempo real com AllMySat

Download on the App Store